Location: Peebles
(55.6412°N, 3.1714°W)
Time: 15:15:53
(UTC+01:00)

DOVE 4 - Visible Passes

Search period start: 28 September 2023 00:00
Search period end: 08 October 2023 00:00
Orbit: 583 x 788 km, 97.8° (Epoch: 28 September)

Date Brightness Start Highest point End Pass type
(mag) Time Alt. Az. Time Alt. Az. Time Alt. Az.
28 Sep ? 01:02:27 10° N 01:04:41 22° NNW 01:04:41 22° NNW visible
28 Sep ? 22:25:21 10° NE 22:25:32 11° NE 22:25:32 11° NE visible
29 Sep ? 00:02:08 10° NNE 00:04:04 25° N 00:04:04 25° N visible
29 Sep ? 01:40:38 10° NNW 01:42:36 16° NW 01:42:36 16° NW visible
29 Sep ? 23:02:22 10° NNE 23:03:26 16° NNE 23:03:26 16° NNE visible
30 Sep ? 00:39:54 10° N 00:41:57 24° N 00:41:57 24° N visible
30 Sep ? 02:19:49 10° NNW 02:20:29 11° NW 02:20:29 11° NW visible
30 Sep ? 23:39:46 10° NNE 23:41:19 21° NNE 23:41:19 21° NNE visible
01 Oct ? 01:17:52 10° N 01:19:51 19° NNW 01:19:51 19° NNW visible
01 Oct ? 22:40:15 10° NNE 22:40:41 12° NE 22:40:41 12° NE visible
02 Oct ? 00:17:24 10° N 00:19:13 23° N 00:19:13 23° N visible
02 Oct ? 01:56:13 10° NNW 01:57:44 14° NW 01:57:44 14° NW visible
02 Oct ? 23:17:27 10° NNE 23:18:34 17° NNE 23:18:34 17° NNE visible
03 Oct ? 00:55:13 10° N 00:57:05 21° NNW 00:57:05 21° NNW visible
03 Oct ? 23:54:57 10° NNE 23:56:26 20° NNE 23:56:26 20° NNE visible
04 Oct ? 01:33:16 10° N 01:34:57 16° NNW 01:34:57 16° NNW visible
04 Oct ? 22:55:12 10° NNE 22:55:46 13° NNE 22:55:46 13° NNE visible
05 Oct ? 00:32:38 10° N 00:34:18 21° N 00:34:18 21° N visible
05 Oct ? 02:11:54 10° NNW 02:12:49 12° NNW 02:12:49 12° NNW visible
05 Oct ? 23:32:32 10° NNE 23:33:37 17° NNE 23:33:37 17° NNE visible
06 Oct ? 01:10:30 10° N 01:12:08 18° NNW 01:12:08 18° NNW visible
07 Oct ? 00:10:05 10° N 00:11:28 19° N 00:11:28 19° N visible
07 Oct ? 01:48:40 10° NNW 01:49:58 14° NNW 01:49:58 14° NNW visible
07 Oct ? 23:10:10 10° NNE 23:10:47 13° NNE 23:10:47 13° NNE visible
